Year,Month,Day,Hour,Minute,Value (Times are PST for temperature in C)
2015,06,27,00,00,13.80
2015,06,27,00,01,13.80
2015,06,27,00,02,13.80
2015,06,27,00,03,13.70
2015,06,27,00,04,13.70
2015,06,27,00,05,13.80
2015,06,27,00,06,13.90
2015,06,27,00,07,13.90
2015,06,27,00,08,14.00
2015,06,27,00,09,14.00
2015,06,27,00,10,14.00
2015,06,27,00,11,14.10
2015,06,27,00,12,14.20
2015,06,27,00,13,14.20
2015,06,27,00,14,14.20
2015,06,27,00,15,14.20
2015,06,27,00,16,14.20
2015,06,27,00,17,14.20
2015,06,27,00,18,14.20
2015,06,27,00,19,14.20
2015,06,27,00,20,14.20
2015,06,27,00,21,14.20
2015,06,27,00,22,14.20
2015,06,27,00,23,14.20
2015,06,27,00,24,14.10
2015,06,27,00,25,14.10
2015,06,27,00,26,14.10
2015,06,27,00,27,14.10
2015,06,27,00,28,14.10
2015,06,27,00,29,14.10
2015,06,27,00,30,14.10
2015,06,27,00,31,14.10
2015,06,27,00,32,14.10
2015,06,27,00,33,14.10
2015,06,27,00,34,14.10
2015,06,27,00,35,14.10
2015,06,27,00,36,14.10
2015,06,27,00,37,14.10
2015,06,27,00,38,14.10
2015,06,27,00,39,14.10
2015,06,27,00,40,14.10
2015,06,27,00,41,14.10
2015,06,27,00,42,14.00
2015,06,27,00,43,14.00
2015,06,27,00,44,14.00
2015,06,27,00,45,13.90
2015,06,27,00,46,13.90
2015,06,27,00,47,13.90
2015,06,27,00,48,13.90
2015,06,27,00,49,13.90
2015,06,27,00,50,13.80
2015,06,27,00,51,13.80
2015,06,27,00,52,13.80
2015,06,27,00,53,13.70
2015,06,27,00,54,13.70
2015,06,27,00,55,13.70
2015,06,27,00,56,13.70
2015,06,27,00,57,13.70
2015,06,27,00,58,13.80
2015,06,27,00,59,13.80
2015,06,27,01,00,13.80
2015,06,27,01,01,13.80
2015,06,27,01,02,13.80
2015,06,27,01,03,13.80
2015,06,27,01,04,13.80
2015,06,27,01,05,13.80
2015,06,27,01,06,13.80
2015,06,27,01,07,13.80
2015,06,27,01,08,13.80
2015,06,27,01,09,13.80
2015,06,27,01,10,13.90
2015,06,27,01,11,13.90
2015,06,27,01,12,13.90
2015,06,27,01,13,13.90
2015,06,27,01,14,13.90
2015,06,27,01,15,14.00
2015,06,27,01,16,14.00
2015,06,27,01,17,13.90
2015,06,27,01,18,13.90
2015,06,27,01,19,13.90
2015,06,27,01,20,13.90
2015,06,27,01,21,13.90
2015,06,27,01,22,14.00
2015,06,27,01,23,14.00
2015,06,27,01,24,14.10
2015,06,27,01,25,14.10
2015,06,27,01,26,14.20
2015,06,27,01,27,14.20
2015,06,27,01,28,14.20
2015,06,27,01,29,14.20
2015,06,27,01,30,14.20
2015,06,27,01,31,14.30
2015,06,27,01,32,14.20
2015,06,27,01,33,14.20
2015,06,27,01,34,14.20
2015,06,27,01,35,14.20
2015,06,27,01,36,14.20
2015,06,27,01,37,14.20
2015,06,27,01,38,14.20
2015,06,27,01,39,14.30
2015,06,27,01,40,14.30
2015,06,27,01,41,14.40
2015,06,27,01,42,14.40
2015,06,27,01,43,14.40
2015,06,27,01,44,14.50
2015,06,27,01,45,14.50
2015,06,27,01,46,14.50
2015,06,27,01,47,14.60
2015,06,27,01,48,14.60
2015,06,27,01,49,14.60
2015,06,27,01,50,14.60
2015,06,27,01,51,14.60
2015,06,27,01,52,14.60
2015,06,27,01,53,14.60
2015,06,27,01,54,14.60
2015,06,27,01,55,14.50
2015,06,27,01,56,14.50
2015,06,27,01,57,14.50
2015,06,27,01,58,14.50
2015,06,27,01,59,14.50
2015,06,27,02,00,14.50
2015,06,27,02,01,14.50
2015,06,27,02,02,14.60
2015,06,27,02,03,14.60
2015,06,27,02,04,14.60
2015,06,27,02,05,14.60
2015,06,27,02,06,14.60
2015,06,27,02,07,14.60
2015,06,27,02,08,14.60
2015,06,27,02,09,14.60
2015,06,27,02,10,14.60
2015,06,27,02,11,14.50
2015,06,27,02,12,14.40
2015,06,27,02,13,14.40
2015,06,27,02,14,14.40
2015,06,27,02,15,14.30
2015,06,27,02,16,14.30
2015,06,27,02,17,14.30
2015,06,27,02,18,14.30
2015,06,27,02,19,14.30
2015,06,27,02,20,14.30
2015,06,27,02,21,14.40
2015,06,27,02,22,14.40
2015,06,27,02,23,14.40
2015,06,27,02,24,14.50
2015,06,27,02,25,14.50
2015,06,27,02,26,14.50
2015,06,27,02,27,14.50
2015,06,27,02,28,14.50
2015,06,27,02,29,14.50
2015,06,27,02,30,14.50
2015,06,27,02,31,14.50
2015,06,27,02,32,14.50
2015,06,27,02,33,14.50
2015,06,27,02,34,14.50
2015,06,27,02,35,14.40
2015,06,27,02,36,14.40
2015,06,27,02,37,14.40
2015,06,27,02,38,14.40
2015,06,27,02,39,14.40
2015,06,27,02,40,14.40
2015,06,27,02,41,14.30
2015,06,27,02,42,14.30
2015,06,27,02,43,14.30
2015,06,27,02,44,14.30
2015,06,27,02,45,14.30
2015,06,27,02,46,14.30
2015,06,27,02,47,14.30
2015,06,27,02,48,14.40
2015,06,27,02,49,14.40
2015,06,27,02,50,14.40
2015,06,27,02,51,14.40
2015,06,27,02,52,14.50
2015,06,27,02,53,14.50
2015,06,27,02,54,14.50
2015,06,27,02,55,14.50
2015,06,27,02,56,14.50
2015,06,27,02,57,14.40
2015,06,27,02,58,14.40
2015,06,27,02,59,14.40
2015,06,27,03,00,14.30
2015,06,27,03,01,14.30
2015,06,27,03,02,14.20
2015,06,27,03,03,14.20
2015,06,27,03,04,14.20
2015,06,27,03,05,14.20
2015,06,27,03,06,14.20
2015,06,27,03,07,14.20
2015,06,27,03,08,14.20
2015,06,27,03,09,14.20
2015,06,27,03,10,14.30
2015,06,27,03,11,14.30
2015,06,27,03,12,14.30
2015,06,27,03,13,14.30
2015,06,27,03,14,14.40
2015,06,27,03,15,14.40
2015,06,27,03,16,14.40
2015,06,27,03,17,14.40
2015,06,27,03,18,14.30
2015,06,27,03,19,14.30
2015,06,27,03,20,14.30
2015,06,27,03,21,14.30
2015,06,27,03,22,14.30
2015,06,27,03,23,14.30
2015,06,27,03,24,14.20
2015,06,27,03,25,14.20
2015,06,27,03,26,14.20
2015,06,27,03,27,14.20
2015,06,27,03,28,14.20
2015,06,27,03,29,14.20
2015,06,27,03,30,14.20
2015,06,27,03,31,14.20
2015,06,27,03,32,14.20
2015,06,27,03,33,14.20
2015,06,27,03,34,14.20
2015,06,27,03,35,14.20
2015,06,27,03,36,14.20
2015,06,27,03,37,14.30
2015,06,27,03,38,14.30
2015,06,27,03,39,14.30
2015,06,27,03,40,14.30
2015,06,27,03,41,14.30
2015,06,27,03,42,14.30
2015,06,27,03,43,14.30
2015,06,27,03,44,14.30
2015,06,27,03,45,14.30
2015,06,27,03,46,14.30
2015,06,27,03,47,14.20
2015,06,27,03,48,14.20
2015,06,27,03,49,14.20
2015,06,27,03,50,14.20
2015,06,27,03,51,14.20
2015,06,27,03,52,14.20
2015,06,27,03,53,14.20
2015,06,27,03,54,14.20
2015,06,27,03,55,14.20
2015,06,27,03,56,14.20
2015,06,27,03,57,14.20
2015,06,27,03,58,14.20
2015,06,27,03,59,14.20
2015,06,27,04,00,14.20
2015,06,27,04,01,14.20
2015,06,27,04,02,14.20
2015,06,27,04,03,14.20
2015,06,27,04,04,14.20
2015,06,27,04,05,14.20
2015,06,27,04,06,14.20
2015,06,27,04,07,14.20
2015,06,27,04,08,14.30
2015,06,27,04,09,14.30
2015,06,27,04,10,14.40
2015,06,27,04,11,14.40
2015,06,27,04,12,14.50
2015,06,27,04,13,14.50
2015,06,27,04,14,14.50
2015,06,27,04,15,14.50
2015,06,27,04,16,14.60
2015,06,27,04,17,14.60
2015,06,27,04,18,14.60
2015,06,27,04,19,14.60
2015,06,27,04,20,14.60
2015,06,27,04,21,14.60
2015,06,27,04,22,14.60
2015,06,27,04,23,14.50
2015,06,27,04,24,14.50
2015,06,27,04,25,14.50
2015,06,27,04,26,14.50
2015,06,27,04,27,14.50
2015,06,27,04,28,14.50
2015,06,27,04,29,14.40
2015,06,27,04,30,14.40
2015,06,27,04,31,14.50
2015,06,27,04,32,14.50
2015,06,27,04,33,14.50
2015,06,27,04,34,14.60
2015,06,27,04,35,14.60
2015,06,27,04,36,14.60
2015,06,27,04,37,14.70
2015,06,27,04,38,14.70
2015,06,27,04,39,14.80
2015,06,27,04,40,14.80
2015,06,27,04,41,14.80
2015,06,27,04,42,14.80
2015,06,27,04,43,14.80
2015,06,27,04,44,14.80
2015,06,27,04,45,14.80
2015,06,27,04,46,14.90
2015,06,27,04,47,14.80
2015,06,27,04,48,14.80
2015,06,27,04,49,14.80
2015,06,27,04,50,14.80
2015,06,27,04,51,14.80
2015,06,27,04,52,14.90
2015,06,27,04,53,14.90
2015,06,27,04,54,14.90
2015,06,27,04,55,14.80
2015,06,27,04,56,14.80
2015,06,27,04,57,14.70
2015,06,27,04,58,14.60
2015,06,27,04,59,14.60
2015,06,27,05,00,14.50
2015,06,27,05,01,14.40
2015,06,27,05,02,14.40
2015,06,27,05,03,14.30
2015,06,27,05,04,14.30
2015,06,27,05,05,14.20
2015,06,27,05,06,14.20
2015,06,27,05,07,14.20
2015,06,27,05,08,14.20
2015,06,27,05,09,14.20
2015,06,27,05,10,14.20
2015,06,27,05,11,14.10
2015,06,27,05,12,14.10
2015,06,27,05,13,14.00
2015,06,27,05,14,14.00
2015,06,27,05,15,14.00
2015,06,27,05,16,14.00
2015,06,27,05,17,14.00
2015,06,27,05,18,14.00
2015,06,27,05,19,13.90
2015,06,27,05,20,13.90
2015,06,27,05,21,13.90
2015,06,27,05,22,13.80
2015,06,27,05,23,13.80
2015,06,27,05,24,13.70
2015,06,27,05,25,13.70
2015,06,27,05,26,13.70
2015,06,27,05,27,13.70
2015,06,27,05,28,13.70
2015,06,27,05,29,13.70
2015,06,27,05,30,13.70
2015,06,27,05,31,13.70
2015,06,27,05,32,13.70
2015,06,27,05,33,13.70
2015,06,27,05,34,13.70
2015,06,27,05,35,13.70
2015,06,27,05,36,13.70
2015,06,27,05,37,13.70
2015,06,27,05,38,13.70
2015,06,27,05,39,13.70
2015,06,27,05,40,13.70
2015,06,27,05,41,13.70
2015,06,27,05,42,13.70
2015,06,27,05,43,13.70
2015,06,27,05,44,13.70
2015,06,27,05,45,13.70
2015,06,27,05,46,13.70
2015,06,27,05,47,13.70
2015,06,27,05,48,13.70
2015,06,27,05,49,13.80
2015,06,27,05,50,13.80
2015,06,27,05,51,13.90
2015,06,27,05,52,13.90
2015,06,27,05,53,13.90
2015,06,27,05,54,14.00
2015,06,27,05,55,14.00
2015,06,27,05,56,14.00
2015,06,27,05,57,14.10
2015,06,27,05,58,14.10
2015,06,27,05,59,14.10
2015,06,27,06,00,14.20
2015,06,27,06,01,14.20
2015,06,27,06,02,14.20
2015,06,27,06,03,14.20
2015,06,27,06,04,14.20
2015,06,27,06,05,14.30
2015,06,27,06,06,14.30
2015,06,27,06,07,14.40
2015,06,27,06,08,14.40
2015,06,27,06,09,14.40
2015,06,27,06,10,14.40
2015,06,27,06,11,14.40
2015,06,27,06,12,14.50
2015,06,27,06,13,14.50
2015,06,27,06,14,14.60
2015,06,27,06,15,14.60
2015,06,27,06,16,14.70
2015,06,27,06,17,14.80
2015,06,27,06,18,14.90
2015,06,27,06,19,14.90
2015,06,27,06,20,15.00
2015,06,27,06,21,15.00
2015,06,27,06,22,15.00
2015,06,27,06,23,15.00
2015,06,27,06,24,15.00
2015,06,27,06,25,15.10
2015,06,27,06,26,15.00
2015,06,27,06,27,15.00
2015,06,27,06,28,15.00
2015,06,27,06,29,15.00
2015,06,27,06,30,15.10
2015,06,27,06,31,15.10
2015,06,27,06,32,15.00
2015,06,27,06,33,15.00
2015,06,27,06,34,14.90
2015,06,27,06,35,14.90
2015,06,27,06,36,14.80
2015,06,27,06,37,14.80
2015,06,27,06,38,14.70
2015,06,27,06,39,14.60
2015,06,27,06,40,14.50
2015,06,27,06,41,14.50
2015,06,27,06,42,14.50
2015,06,27,06,43,14.50
2015,06,27,06,44,14.40
2015,06,27,06,45,14.40
2015,06,27,06,46,14.40
2015,06,27,06,47,14.40
2015,06,27,06,48,14.40
2015,06,27,06,49,14.30
2015,06,27,06,50,14.30
2015,06,27,06,51,14.30
2015,06,27,06,52,14.30
2015,06,27,06,53,14.40
2015,06,27,06,54,14.40
2015,06,27,06,55,14.50
2015,06,27,06,56,14.50
2015,06,27,06,57,14.60
2015,06,27,06,58,14.60
2015,06,27,06,59,14.70
2015,06,27,07,00,14.80
2015,06,27,07,01,14.80
2015,06,27,07,02,14.80
2015,06,27,07,03,14.80
2015,06,27,07,04,14.80
2015,06,27,07,05,14.90
2015,06,27,07,06,14.90
2015,06,27,07,07,15.00
2015,06,27,07,08,15.00
2015,06,27,07,09,15.00
2015,06,27,07,10,15.10
2015,06,27,07,11,15.10
2015,06,27,07,12,15.10
2015,06,27,07,13,15.10
2015,06,27,07,14,15.10
2015,06,27,07,15,15.10
2015,06,27,07,16,15.10
2015,06,27,07,17,15.10
2015,06,27,07,18,15.10
2015,06,27,07,19,15.20
2015,06,27,07,20,15.30
2015,06,27,07,21,15.30
2015,06,27,07,22,15.40
2015,06,27,07,23,15.40
2015,06,27,07,24,15.40
2015,06,27,07,25,15.30
2015,06,27,07,26,15.30
2015,06,27,07,27,15.20
2015,06,27,07,28,15.10
2015,06,27,07,29,15.10
2015,06,27,07,30,15.00
2015,06,27,07,31,15.00
2015,06,27,07,32,15.00
2015,06,27,07,33,15.10
2015,06,27,07,34,15.10
2015,06,27,07,35,15.20
2015,06,27,07,36,15.10
2015,06,27,07,37,15.10
2015,06,27,07,38,15.10
2015,06,27,07,39,15.10
2015,06,27,07,40,15.10
2015,06,27,07,41,15.10
2015,06,27,07,42,15.20
2015,06,27,07,43,15.20
2015,06,27,07,44,15.30
2015,06,27,07,45,15.30
2015,06,27,07,46,15.40
2015,06,27,07,47,15.50
2015,06,27,07,48,15.60
2015,06,27,07,49,15.70
2015,06,27,07,50,15.80
2015,06,27,07,51,15.80
2015,06,27,07,52,15.80
2015,06,27,07,53,15.80
2015,06,27,07,54,15.80
2015,06,27,07,55,15.80
2015,06,27,07,56,15.90
2015,06,27,07,57,16.00
2015,06,27,07,58,16.10
2015,06,27,07,59,16.20
2015,06,27,08,00,16.30
2015,06,27,08,01,16.40
2015,06,27,08,02,16.40
2015,06,27,08,03,16.50
2015,06,27,08,04,16.60
2015,06,27,08,05,16.70
2015,06,27,08,06,16.70
2015,06,27,08,07,16.80
2015,06,27,08,08,16.90
2015,06,27,08,09,17.00
2015,06,27,08,10,17.10
2015,06,27,08,11,17.20
2015,06,27,08,12,17.30
2015,06,27,08,13,17.30
2015,06,27,08,14,17.30
2015,06,27,08,15,17.40
2015,06,27,08,16,17.50
2015,06,27,08,17,17.60
2015,06,27,08,18,17.70
2015,06,27,08,19,17.80
2015,06,27,08,20,17.90
2015,06,27,08,21,17.90
2015,06,27,08,22,18.00
2015,06,27,08,23,18.10
2015,06,27,08,24,18.10
2015,06,27,08,25,18.20
2015,06,27,08,26,18.30
2015,06,27,08,27,18.40
2015,06,27,08,28,18.50
2015,06,27,08,29,18.60
2015,06,27,08,30,18.70
2015,06,27,08,31,18.90
2015,06,27,08,32,18.90
2015,06,27,08,33,19.10
2015,06,27,08,34,19.20
2015,06,27,08,35,19.40
2015,06,27,08,36,19.50
2015,06,27,08,37,19.60
2015,06,27,08,38,19.70
2015,06,27,08,39,19.80
2015,06,27,08,40,19.90
2015,06,27,08,41,19.90
2015,06,27,08,42,20.00
2015,06,27,08,43,20.10
2015,06,27,08,44,20.20
2015,06,27,08,45,20.20
2015,06,27,08,46,20.40
2015,06,27,08,47,20.50
2015,06,27,08,48,20.50
2015,06,27,08,49,20.70
2015,06,27,08,50,20.80
2015,06,27,08,51,21.00
2015,06,27,08,52,21.10
2015,06,27,08,53,21.20
2015,06,27,08,54,21.30
2015,06,27,08,55,21.30
2015,06,27,08,56,21.30
2015,06,27,08,57,21.30
2015,06,27,08,58,21.40
2015,06,27,08,59,21.50
2015,06,27,09,00,21.60
2015,06,27,09,01,21.60
2015,06,27,09,02,21.60
2015,06,27,09,03,21.50
2015,06,27,09,04,21.40
2015,06,27,09,05,21.30
2015,06,27,09,06,21.20
2015,06,27,09,07,21.10
2015,06,27,09,08,21.00
2015,06,27,09,09,20.80
2015,06,27,09,10,20.60
2015,06,27,09,11,20.30
2015,06,27,09,12,19.90
2015,06,27,09,13,19.30
2015,06,27,09,14,18.70
2015,06,27,09,15,18.10
2015,06,27,09,16,17.70
2015,06,27,09,17,17.30
2015,06,27,09,18,17.00
2015,06,27,09,19,16.80
2015,06,27,09,20,16.50
2015,06,27,09,21,16.30
2015,06,27,09,22,16.20
2015,06,27,09,23,15.90
2015,06,27,09,24,15.60
2015,06,27,09,25,15.30
2015,06,27,09,26,15.10
2015,06,27,09,27,15.10
2015,06,27,09,28,15.10
2015,06,27,09,29,15.00
2015,06,27,09,30,14.90
2015,06,27,09,31,14.80
2015,06,27,09,32,14.80
2015,06,27,09,33,14.80
2015,06,27,09,34,14.80
2015,06,27,09,35,14.90
2015,06,27,09,36,15.00
2015,06,27,09,37,15.10
2015,06,27,09,38,15.20
2015,06,27,09,39,15.30
2015,06,27,09,40,15.50
2015,06,27,09,41,15.60
2015,06,27,09,42,15.70
2015,06,27,09,43,15.90
2015,06,27,09,44,16.10
2015,06,27,09,45,16.20
2015,06,27,09,46,16.30
2015,06,27,09,47,16.50
2015,06,27,09,48,16.60
2015,06,27,09,49,16.80
2015,06,27,09,50,16.90
2015,06,27,09,51,17.00
2015,06,27,09,52,17.10
2015,06,27,09,53,17.20
2015,06,27,09,54,17.40
2015,06,27,09,55,17.50
2015,06,27,09,56,17.60
2015,06,27,09,57,17.70
2015,06,27,09,58,17.80
2015,06,27,09,59,17.90
2015,06,27,10,00,18.00
2015,06,27,10,01,18.10
2015,06,27,10,02,18.10
2015,06,27,10,03,18.20
2015,06,27,10,04,18.20
2015,06,27,10,05,18.20
2015,06,27,10,06,18.20
2015,06,27,10,07,18.20
2015,06,27,10,08,18.30
2015,06,27,10,09,18.40
2015,06,27,10,10,18.50
2015,06,27,10,11,18.50
2015,06,27,10,12,18.60
2015,06,27,10,13,18.70
2015,06,27,10,14,18.90
2015,06,27,10,15,19.00
2015,06,27,10,16,19.10
2015,06,27,10,17,19.20
2015,06,27,10,18,19.30
2015,06,27,10,19,19.50
2015,06,27,10,20,19.60
2015,06,27,10,21,19.80
2015,06,27,10,22,19.90
2015,06,27,10,23,19.90
2015,06,27,10,24,20.10
2015,06,27,10,25,20.20
2015,06,27,10,26,20.30
2015,06,27,10,27,20.50
2015,06,27,10,28,20.70
2015,06,27,10,29,20.90
2015,06,27,10,30,21.10
2015,06,27,10,31,21.40
2015,06,27,10,32,21.60
2015,06,27,10,33,21.80
2015,06,27,10,34,22.00
2015,06,27,10,35,22.20
2015,06,27,10,36,22.30
2015,06,27,10,37,22.50
2015,06,27,10,38,22.70
2015,06,27,10,39,22.90
2015,06,27,10,40,23.10
2015,06,27,10,41,23.20
2015,06,27,10,42,23.20
2015,06,27,10,43,23.30
2015,06,27,10,44,23.30
2015,06,27,10,45,23.30
2015,06,27,10,46,23.40
2015,06,27,10,47,23.50
2015,06,27,10,48,23.60
2015,06,27,10,49,23.70
2015,06,27,10,50,23.90
2015,06,27,10,51,24.00
2015,06,27,10,52,24.10
2015,06,27,10,53,24.20
2015,06,27,10,54,24.00
2015,06,27,10,55,23.80
2015,06,27,10,56,23.70
2015,06,27,10,57,23.50
2015,06,27,10,58,23.40
2015,06,27,10,59,23.30
2015,06,27,11,00,23.00
2015,06,27,11,01,22.40
2015,06,27,11,02,21.70
2015,06,27,11,03,21.00
2015,06,27,11,04,20.50
2015,06,27,11,05,20.00
2015,06,27,11,06,19.70
2015,06,27,11,07,19.60
2015,06,27,11,08,19.50
2015,06,27,11,09,19.60
2015,06,27,11,10,19.60
2015,06,27,11,11,19.60
2015,06,27,11,12,19.60
2015,06,27,11,13,19.60
2015,06,27,11,14,19.60
2015,06,27,11,15,19.70
2015,06,27,11,16,19.60
2015,06,27,11,17,19.60
2015,06,27,11,18,19.60
2015,06,27,11,19,19.50
2015,06,27,11,20,19.40
2015,06,27,11,21,19.30
2015,06,27,11,22,19.30
2015,06,27,11,23,19.40
2015,06,27,11,24,19.50
2015,06,27,11,25,19.50
2015,06,27,11,26,19.50
2015,06,27,11,27,19.50
2015,06,27,11,28,19.50
2015,06,27,11,29,19.50
2015,06,27,11,30,19.50
2015,06,27,11,31,19.50
2015,06,27,11,32,19.50
2015,06,27,11,33,19.50
2015,06,27,11,34,19.40
2015,06,27,11,35,19.30
2015,06,27,11,36,19.30
2015,06,27,11,37,19.40
2015,06,27,11,38,19.50
2015,06,27,11,39,19.60
2015,06,27,11,40,19.70
2015,06,27,11,41,19.70
2015,06,27,11,42,19.80
2015,06,27,11,43,19.80
2015,06,27,11,44,19.90
2015,06,27,11,45,20.00
2015,06,27,11,46,20.10
2015,06,27,11,47,20.20
2015,06,27,11,48,20.30
2015,06,27,11,49,20.40
2015,06,27,11,50,20.60
2015,06,27,11,51,20.80
2015,06,27,11,52,21.00
2015,06,27,11,53,21.10
2015,06,27,11,54,21.30
2015,06,27,11,55,21.40
2015,06,27,11,56,21.50
2015,06,27,11,57,21.60
2015,06,27,11,58,21.70
2015,06,27,11,59,21.90
2015,06,27,12,00,21.90
2015,06,27,12,01,22.00
2015,06,27,12,02,22.00
2015,06,27,12,03,22.00
2015,06,27,12,04,22.00
2015,06,27,12,05,22.00
2015,06,27,12,06,22.00
2015,06,27,12,07,22.00
2015,06,27,12,08,22.00
2015,06,27,12,09,22.10
2015,06,27,12,10,22.00
2015,06,27,12,11,21.90
2015,06,27,12,12,21.60
2015,06,27,12,13,21.50
2015,06,27,12,14,21.40
2015,06,27,12,15,21.40
2015,06,27,12,16,21.50
2015,06,27,12,17,21.60
2015,06,27,12,18,21.60
2015,06,27,12,19,21.60
2015,06,27,12,20,21.70
2015,06,27,12,21,21.70
2015,06,27,12,22,21.60
2015,06,27,12,23,21.60
2015,06,27,12,24,21.40
2015,06,27,12,25,21.30
2015,06,27,12,26,21.30
2015,06,27,12,27,21.20
2015,06,27,12,28,21.10
2015,06,27,12,29,21.10
2015,06,27,12,30,21.00
2015,06,27,12,31,20.90
2015,06,27,12,32,21.00
2015,06,27,12,33,21.00
2015,06,27,12,34,21.10
2015,06,27,12,35,21.10
2015,06,27,12,36,21.30
2015,06,27,12,37,21.40
2015,06,27,12,38,21.40
2015,06,27,12,39,21.60
2015,06,27,12,40,21.40
2015,06,27,12,41,21.40
2015,06,27,12,42,21.50
2015,06,27,12,43,21.60
2015,06,27,12,44,21.60
2015,06,27,12,45,21.60
2015,06,27,12,46,21.60
2015,06,27,12,47,21.70
2015,06,27,12,48,21.80
2015,06,27,12,49,21.80
2015,06,27,12,50,21.80
2015,06,27,12,51,21.80
2015,06,27,12,52,21.80
2015,06,27,12,53,21.80
2015,06,27,12,54,21.70
2015,06,27,12,55,21.60
2015,06,27,12,56,21.60
2015,06,27,12,57,21.60
2015,06,27,12,58,21.60
2015,06,27,12,59,21.60
2015,06,27,13,00,21.60
2015,06,27,13,01,21.70
2015,06,27,13,02,21.70
2015,06,27,13,03,21.70
2015,06,27,13,04,21.60
2015,06,27,13,05,21.60
2015,06,27,13,06,21.60
2015,06,27,13,07,21.60
2015,06,27,13,08,21.60
2015,06,27,13,09,21.70
2015,06,27,13,10,21.80
2015,06,27,13,11,21.80
2015,06,27,13,12,21.80
2015,06,27,13,13,21.80
2015,06,27,13,14,21.90
2015,06,27,13,15,22.00
2015,06,27,13,16,22.10
2015,06,27,13,17,22.30
2015,06,27,13,18,22.40
2015,06,27,13,19,22.40
2015,06,27,13,20,22.50
2015,06,27,13,21,22.60
2015,06,27,13,22,22.70
2015,06,27,13,23,22.80
2015,06,27,13,24,22.90
2015,06,27,13,25,23.10
2015,06,27,13,26,23.10
2015,06,27,13,27,23.30
2015,06,27,13,28,23.40
2015,06,27,13,29,23.40
2015,06,27,13,30,23.50
2015,06,27,13,31,23.60
2015,06,27,13,32,23.60
2015,06,27,13,33,23.70
2015,06,27,13,34,23.70
2015,06,27,13,35,23.80
2015,06,27,13,36,24.00
2015,06,27,13,37,24.10
2015,06,27,13,38,24.10
2015,06,27,13,39,24.10
2015,06,27,13,40,24.10
2015,06,27,13,41,24.10
2015,06,27,13,42,23.90
2015,06,27,13,43,23.90
2015,06,27,13,44,24.10
2015,06,27,13,45,24.10
2015,06,27,13,46,24.10
2015,06,27,13,47,24.10
2015,06,27,13,48,24.10
2015,06,27,13,49,24.10
2015,06,27,13,50,24.10
2015,06,27,13,51,24.10
2015,06,27,13,52,24.00
2015,06,27,13,53,23.90
2015,06,27,13,54,23.80
2015,06,27,13,55,23.70
2015,06,27,13,56,23.70
2015,06,27,13,57,23.70
2015,06,27,13,58,23.70
2015,06,27,13,59,23.70
2015,06,27,14,00,23.80
2015,06,27,14,01,23.90
2015,06,27,14,02,24.00
2015,06,27,14,03,24.00
2015,06,27,14,04,23.90
2015,06,27,14,05,23.80
2015,06,27,14,06,23.80
2015,06,27,14,07,23.90
2015,06,27,14,08,23.90
2015,06,27,14,09,23.80
2015,06,27,14,10,23.70
2015,06,27,14,11,23.70
2015,06,27,14,12,23.60
2015,06,27,14,13,23.60
2015,06,27,14,14,23.60
2015,06,27,14,15,23.60
2015,06,27,14,16,23.60
2015,06,27,14,17,23.50
2015,06,27,14,18,23.60
2015,06,27,14,19,23.60
2015,06,27,14,20,23.50
2015,06,27,14,21,23.40
2015,06,27,14,22,23.40
2015,06,27,14,23,23.40
2015,06,27,14,24,23.60
2015,06,27,14,25,23.70
2015,06,27,14,26,23.70
2015,06,27,14,27,23.80
2015,06,27,14,28,23.80
2015,06,27,14,29,23.80
2015,06,27,14,30,23.90
2015,06,27,14,31,24.00
2015,06,27,14,32,24.10
2015,06,27,14,33,24.10
2015,06,27,14,34,24.10
2015,06,27,14,35,24.10
2015,06,27,14,36,24.20
2015,06,27,14,37,24.20
2015,06,27,14,38,24.20
2015,06,27,14,39,24.20
2015,06,27,14,40,24.20
2015,06,27,14,41,24.30
2015,06,27,14,42,24.40
2015,06,27,14,43,24.50
2015,06,27,14,44,24.70
2015,06,27,14,45,24.90
2015,06,27,14,46,25.00
2015,06,27,14,47,25.10
2015,06,27,14,48,25.10
2015,06,27,14,49,25.20
2015,06,27,14,50,25.40
2015,06,27,14,51,25.40
2015,06,27,14,52,25.50
2015,06,27,14,53,25.50
2015,06,27,14,54,25.60
2015,06,27,14,55,25.70
2015,06,27,14,56,25.70
2015,06,27,14,57,25.80
2015,06,27,14,58,25.80
2015,06,27,14,59,25.90
2015,06,27,15,00,26.00
2015,06,27,15,01,26.10
2015,06,27,15,02,26.20
2015,06,27,15,03,26.40
2015,06,27,15,04,26.50
2015,06,27,15,05,26.70
2015,06,27,15,06,26.90
2015,06,27,15,07,27.10
2015,06,27,15,08,27.20
2015,06,27,15,09,27.30
2015,06,27,15,10,27.40
2015,06,27,15,11,27.30
2015,06,27,15,12,27.20
2015,06,27,15,13,27.10
2015,06,27,15,14,27.00
2015,06,27,15,15,26.90
2015,06,27,15,16,26.90
2015,06,27,15,17,26.80
2015,06,27,15,18,26.70
2015,06,27,15,19,26.70
2015,06,27,15,20,26.70
2015,06,27,15,21,26.60
2015,06,27,15,22,26.60
2015,06,27,15,23,26.60
2015,06,27,15,24,26.60
2015,06,27,15,25,26.60
2015,06,27,15,26,26.50
2015,06,27,15,27,26.40
2015,06,27,15,28,26.60
2015,06,27,15,29,26.60
2015,06,27,15,30,26.60
2015,06,27,15,31,26.50
2015,06,27,15,32,26.40
2015,06,27,15,33,26.30
2015,06,27,15,34,26.20
2015,06,27,15,35,26.00
2015,06,27,15,36,25.80
2015,06,27,15,37,25.60
2015,06,27,15,38,25.40
2015,06,27,15,39,25.40
2015,06,27,15,40,25.40
2015,06,27,15,41,25.40
2015,06,27,15,42,25.50
2015,06,27,15,43,25.50
2015,06,27,15,44,25.40
2015,06,27,15,45,25.40
2015,06,27,15,46,25.30
2015,06,27,15,47,25.30
2015,06,27,15,48,25.30
2015,06,27,15,49,25.40
2015,06,27,15,50,25.40
2015,06,27,15,51,25.50
2015,06,27,15,52,25.60
2015,06,27,15,53,25.60
2015,06,27,15,54,25.60
2015,06,27,15,55,25.70
2015,06,27,15,56,25.80
2015,06,27,15,57,25.80
2015,06,27,15,58,25.70
2015,06,27,15,59,25.60
2015,06,27,16,00,25.40
2015,06,27,16,01,25.20
2015,06,27,16,02,25.00
2015,06,27,16,03,24.80
2015,06,27,16,04,24.70
2015,06,27,16,05,24.50
2015,06,27,16,06,24.40
2015,06,27,16,07,24.20
2015,06,27,16,08,24.10
2015,06,27,16,09,24.10
2015,06,27,16,10,23.90
2015,06,27,16,11,23.80
2015,06,27,16,12,23.70
2015,06,27,16,13,23.70
2015,06,27,16,14,23.70
2015,06,27,16,15,23.50
2015,06,27,16,16,23.40
2015,06,27,16,17,23.30
2015,06,27,16,18,23.20
2015,06,27,16,19,23.10
2015,06,27,16,20,22.90
2015,06,27,16,21,22.80
2015,06,27,16,22,22.70
2015,06,27,16,23,22.60
2015,06,27,16,24,22.50
2015,06,27,16,25,22.50
2015,06,27,16,26,22.50
2015,06,27,16,27,22.50
2015,06,27,16,28,22.60
2015,06,27,16,29,22.60
2015,06,27,16,30,22.60
2015,06,27,16,31,22.70
2015,06,27,16,32,22.70
2015,06,27,16,33,22.60
2015,06,27,16,34,22.60
2015,06,27,16,35,22.50
2015,06,27,16,36,22.40
2015,06,27,16,37,22.40
2015,06,27,16,38,22.40
2015,06,27,16,39,22.50
2015,06,27,16,40,22.50
2015,06,27,16,41,22.50
2015,06,27,16,42,22.50
2015,06,27,16,43,22.60
2015,06,27,16,44,22.60
2015,06,27,16,45,22.70
2015,06,27,16,46,22.70
2015,06,27,16,47,22.70
2015,06,27,16,48,22.70
2015,06,27,16,49,22.70
2015,06,27,16,50,22.80
2015,06,27,16,51,22.80
2015,06,27,16,52,22.80
2015,06,27,16,53,22.70
2015,06,27,16,54,22.60
2015,06,27,16,55,22.50
2015,06,27,16,56,22.40
2015,06,27,16,57,22.30
2015,06,27,16,58,22.30
2015,06,27,16,59,22.30
2015,06,27,17,00,22.30
2015,06,27,17,01,22.20
2015,06,27,17,02,22.20
2015,06,27,17,03,22.20
2015,06,27,17,04,22.20
2015,06,27,17,05,22.20
2015,06,27,17,06,22.10
2015,06,27,17,07,22.10
2015,06,27,17,08,22.00
2015,06,27,17,09,21.90
2015,06,27,17,10,21.80
2015,06,27,17,11,21.80
2015,06,27,17,12,21.70
2015,06,27,17,13,21.70
2015,06,27,17,14,21.70
2015,06,27,17,15,21.70
2015,06,27,17,16,21.70
2015,06,27,17,17,21.70
2015,06,27,17,18,21.60
2015,06,27,17,19,21.70